Back to catalog

IRIDIUM 139

AliveCommunicationsPO
NORAD 42963·PAYLOAD·🇺🇸 United States

Launched Oct 9, 2017 from Vandenberg Space Force Base

Loading…

Next Passes (next 24 hours)

TLE

FreshSource: CelesTrak SupGP

Epoch: Sep 14, 2026, 07:05 UTC

1 42963C 17061J   26257.29548611 -.00002948  00000+0 -10542-2 0  2572
2 42963  86.4031 348.0862 0002239  95.7599 320.9534 14.34221795    14

Track IRIDIUM 139 in real time with AllMySat

Download on the App Store